Flag for U.S.A. Weather past 2 weeks in Austin, Texas, U.S.A.

Now
69 °F

Clear.


Feels Like: 69 °F
Forecast: 55 / 66 °F
Wind: 12 mph from North

Location: Camp Mabry / Austin City

Current Time: Apr 27, 2015 at 11:54:09 PM

Latest Report: Apr 27, 2015 at 10:51 PM


Visibility: 10 mi

Pressure: 29.80 "Hg

Humidity: 66%

Dew point: 57 °F

Location of AustinLocation

Historic Weather in Austin — Graph

°F

Austin temperature yesterday

Maximum temperature yesterday: 85 °F (at 3:51 PM)
Minimum temperature yesterday: 69 °F (at 9:51 AM)
Average temperature yesterday: 76 °F

Past Weeks' High & Low Weather Summary

 TemperatureHumidityPressure
High92 °F (Apr 25, 3:51 PM)100% (Apr 13, 3:51 AM)30.10 "Hg (Apr 13, 3:51 AM)
Low52 °F (Apr 21, 5:51 AM)20% (Apr 19, 5:51 PM)29.52 "Hg (Apr 26, 6:51 PM)
Average72 °F73%29.85 "Hg
* Reported Apr 12 9:51 PM — Apr 27 9:51 PM, Austin, Weather by CustomWeather, © 2015

Note: Actual official high and low records may vary slightly from our data, if they occured in-between our weather recording intervals... More about our weather records

Advertising

Austin weather history for previous 24 hours

 ConditionsComfort  
Time TempWeatherWind HumidityBarometerVisibility
9:51 PM
Mon, Apr 27
74 °FClear.5 mph50%29.75 "Hg10 mi
8:51 PM75 °FSunny.3 mph50%29.72 "Hg10 mi
7:51 PM79 °FScattered clouds.5 mph45%29.68 "Hg10 mi
6:51 PM83 °FSunny.5 mph34%29.65 "Hg10 mi
5:51 PM85 °FSunny.7 mph32%29.64 "Hg10 mi
4:51 PM84 °FSunny.7 mph37%29.65 "Hg10 mi
3:51 PM83 °FSunny.7 mph48%29.66 "Hg10 mi
2:51 PM82 °FSunny.6 mph51%29.67 "Hg10 mi
1:51 PM79 °FPassing clouds.No wind56%29.68 "Hg10 mi
1:01 PM79 °FScattered clouds.6 mph62%29.72 "Hg10 mi
11:51 AM75 °FPartly sunny.No wind64%29.70 "Hg10 mi
10:51 AM72 °FPassing clouds.No wind71%29.68 "Hg10 mi
9:51 AM68 °FOvercast.No wind84%29.68 "Hg10 mi
8:51 AM65 °FOvercast.No wind91%29.69 "Hg10 mi
7:51 AM64 °FLow clouds.3 mph94%29.66 "Hg10 mi
6:51 AM64 °FOvercast.No wind94%29.64 "Hg10 mi
5:51 AM63 °FPassing clouds.3 mph97%29.60 "Hg10 mi
4:51 AM63 °FClear.No wind97%29.59 "Hg10 mi
3:51 AM64 °FClear.5 mph97%29.58 "Hg10 mi
2:51 AM66 °FLight rain. Mostly cloudy.6 mph84%29.54 "Hg9 mi
1:57 AM64 °FStrong thunderstorms. Fog.16 mph94%29.70 "Hg1 mi
12:51 AM73 °FFog.3 mph88%29.55 "Hg6 mi
11:51 PM
Sun, Apr 26
73 °FOvercast.13 mph81%29.52 "Hg9 mi
11:01 PM74 °FOvercast.10 mph76%29.57 "Hg10 mi
Weather by CustomWeather, © 2015

See weather overviewHow to use our weather pages